When you browse on this site, cookies collect data to enhance your experience and personalize the content and advertising you see.
Visit our Privacy Policy to learn more. By continuing to use the site, you agree to this use of cookies and data.
  • en France
  • Liste des pays
  • À 7 jours
  • Température de l'eau
  • Carte météo
  • Widgets météo
  • user-avatar
    Se connecter

    Météo par heure à Nantes

    Ce jour, 17 Septembre, Mardi

    Heure Température Précipitation Vent Pression Humidité
    00:00 +15°C° 0 mm 4 m/s 764 mmHg 95%
    01:00 +15°C° 0 mm 4 m/s 764 mmHg 95%
    02:00 +14°C° 0 mm 3 m/s 764 mmHg 95%
    03:00 +14°C° 0 mm 3 m/s 763 mmHg 95%
    04:00 +14°C° 0 mm 3 m/s 763 mmHg 95%
    05:00 +13°C° 0 mm 3 m/s 763 mmHg 95%
    06:00 +13°C° 0 mm 3 m/s 763 mmHg 95%
    07:00 +15°C° 0 mm 4 m/s 764 mmHg 86%
    08:00 +18°C° 0 mm 4 m/s 764 mmHg 77%
    09:00 +21°C° 0 mm 4 m/s 764 mmHg 67%
    10:00 +23°C° 0 mm 4 m/s 764 mmHg 59%
    11:00 +26°C° 0 mm 4 m/s 763 mmHg 50%
    12:00 +28°C° 0 mm 4 m/s 763 mmHg 41%
    13:00 +28°C° 0 mm 5 m/s 763 mmHg 42%
    14:00 +29°C° 0 mm 5 m/s 763 mmHg 43%
    15:00 +29°C° 0 mm 6 m/s 762 mmHg 44%
    16:00 +27°C° 0 mm 6 m/s 762 mmHg 48%
    17:00 +26°C° 0 mm 6 m/s 762 mmHg 52%
    18:00 +23°C° 0 mm 6 m/s 762 mmHg 57%
    19:00 +22°C° 0 mm 6 m/s 763 mmHg 59%
    20:00 +20°C° 0 mm 6 m/s 763 mmHg 62%
    21:00 +19°C° 0 mm 6 m/s 764 mmHg 65%
    22:00 +17°C° 0 mm 6 m/s 764 mmHg 66%
    23:00 +16°C° 0 mm 6 m/s 764 mmHg 68%

    Demain, 18 Septembre, Mercredi

    Heure Température Précipitation Vent Pression Humidité
    00:00 +15°C° 0 mm 6 m/s 764 mmHg 69%
    01:00 +14°C° 0 mm 6 m/s 764 mmHg 71%
    02:00 +14°C° 0 mm 6 m/s 764 mmHg 72%
    03:00 +13°C° 0 mm 6 m/s 764 mmHg 73%
    04:00 +13°C° 0 mm 6 m/s 764 mmHg 74%
    05:00 +11°C° 0 mm 6 m/s 764 mmHg 76%
    06:00 +10°C° 0 mm 6 m/s 765 mmHg 77%
    07:00 +12°C° 0 mm 7 m/s 765 mmHg 69%
    08:00 +14°C° 0 mm 7 m/s 765 mmHg 62%
    09:00 +16°C° 0 mm 8 m/s 765 mmHg 54%
    10:00 +18°C° 0 mm 8 m/s 765 mmHg 46%
    11:00 +21°C° 0 mm 8 m/s 765 mmHg 37%
    12:00 +23°C° 0 mm 8 m/s 764 mmHg 28%
    13:00 +23°C° 0 mm 8 m/s 764 mmHg 25%
    14:00 +24°C° 0 mm 8 m/s 764 mmHg 23%
    15:00 +24°C° 0 mm 8 m/s 764 mmHg 20%
    16:00 +23°C° 0 mm 7 m/s 764 mmHg 23%
    17:00 +21°C° 0 mm 7 m/s 764 mmHg 25%
    18:00 +20°C° 0 mm 6 m/s 764 mmHg 27%
    19:00 +19°C° 0 mm 6 m/s 765 mmHg 32%
    20:00 +17°C° 0 mm 7 m/s 765 mmHg 37%
    21:00 +16°C° 0 mm 7 m/s 766 mmHg 41%
    22:00 +15°C° 0 mm 7 m/s 766 mmHg 44%
    23:00 +14°C° 0 mm 7 m/s 766 mmHg 48%

    Après-demain, 19 Septembre, Jeudi

    Heure Température Précipitation Vent Pression Humidité
    00:00 +14°C° 0 mm 6 m/s 766 mmHg 51%
    01:00 +13°C° 0 mm 6 m/s 766 mmHg 53%
    02:00 +11°C° 0 mm 6 m/s 766 mmHg 56%
    03:00 +11°C° 0 mm 6 m/s 766 mmHg 59%
    04:00 +10°C° 0 mm 6 m/s 766 mmHg 61%
    05:00 +10°C° 0 mm 6 m/s 766 mmHg 63%
    06:00 +10°C° 0 mm 6 m/s 766 mmHg 65%
    07:00 +12°C° 0 mm 7 m/s 767 mmHg 57%
    08:00 +15°C° 0 mm 8 m/s 767 mmHg 50%
    09:00 +17°C° 0 mm 9 m/s 767 mmHg 42%
    10:00 +18°C° 0 mm 9 m/s 767 mmHg 39%
    11:00 +21°C° 0 mm 9 m/s 767 mmHg 35%
    12:00 +22°C° 0 mm 9 m/s 766 mmHg 32%
    13:00 +23°C° 0 mm 8 m/s 766 mmHg 32%
    14:00 +23°C° 0 mm 8 m/s 765 mmHg 31%
    15:00 +24°C° 0 mm 8 m/s 765 mmHg 30%
    16:00 +22°C° 0 mm 7 m/s 765 mmHg 34%
    17:00 +21°C° 0 mm 7 m/s 765 mmHg 37%
    18:00 +20°C° 0 mm 6 m/s 765 mmHg 40%
    19:00 +19°C° 0 mm 6 m/s 765 mmHg 42%
    20:00 +16°C° 0 mm 6 m/s 765 mmHg 45%
    21:00 +15°C° 0 mm 6 m/s 765 mmHg 47%
    22:00 +15°C° 0 mm 6 m/s 765 mmHg 47%
    23:00 +14°C° 0 mm 6 m/s 765 mmHg 47%

    20 Septembre, Vendredi

    Heure Température Précipitation Vent Pression Humidité
    00:00 +14°C° 0 mm 6 m/s 765 mmHg 47%
    01:00 +13°C° 0 mm 6 m/s 764 mmHg 47%
    02:00 +11°C° 0 mm 6 m/s 764 mmHg 48%
    03:00 +11°C° 0 mm 6 m/s 764 mmHg 48%
    04:00 +10°C° 0 mm 6 m/s 764 mmHg 49%
    05:00 +10°C° 0 mm 6 m/s 763 mmHg 51%
    06:00 +9°C° 0 mm 6 m/s 763 mmHg 52%
    07:00 +11°C° 0 mm 7 m/s 763 mmHg 47%
    08:00 +15°C° 0 mm 7 m/s 763 mmHg 42%
    09:00 +17°C° 0 mm 7 m/s 763 mmHg 37%
    10:00 +20°C° 0 mm 7 m/s 762 mmHg 34%
    11:00 +23°C° 0 mm 7 m/s 762 mmHg 31%
    12:00 +26°C° 0 mm 6 m/s 761 mmHg 27%
    13:00 +27°C° 0 mm 6 m/s 761 mmHg 27%
    14:00 +28°C° 0 mm 5 m/s 760 mmHg 27%
    15:00 +29°C° 0 mm 5 m/s 759 mmHg 27%
    16:00 +28°C° 0 mm 4 m/s 759 mmHg 31%
    17:00 +26°C° 0 mm 4 m/s 759 mmHg 34%
    18:00 +23°C° 0 mm 4 m/s 759 mmHg 37%
    19:00 +22°C° 0 mm 4 m/s 759 mmHg 37%
    20:00 +22°C° 0 mm 5 m/s 759 mmHg 37%
    21:00 +21°C° 0 mm 5 m/s 758 mmHg 37%
    22:00 +20°C° 0 mm 5 m/s 758 mmHg 38%
    23:00 +20°C° 0 mm 5 m/s 758 mmHg 39%

    21 Septembre, Samedi

    Heure Température Précipitation Vent Pression Humidité
    00:00 +20°C° 0 mm 5 m/s 757 mmHg 41%
    01:00 +20°C° 0 mm 5 m/s 757 mmHg 52%
    02:00 +19°C° 0 mm 5 m/s 757 mmHg 63%
    03:00 +19°C° 0 mm 5 m/s 756 mmHg 75%
    04:00 +19°C° 0.1 mm 5 m/s 756 mmHg 78%
    05:00 +17°C° 0.1 mm 5 m/s 756 mmHg 80%
    06:00 +17°C° 0.1 mm 5 m/s 756 mmHg 83%
    07:00 +19°C° 0.2 mm 5 m/s 756 mmHg 80%
    08:00 +20°C° 0.2 mm 5 m/s 756 mmHg 77%
    09:00 +22°C° 0.2 mm 6 m/s 756 mmHg 74%
    10:00 +23°C° 0 mm 6 m/s 756 mmHg 68%
    11:00 +26°C° 0 mm 6 m/s 756 mmHg 62%
    12:00 +27°C° 0 mm 6 m/s 755 mmHg 56%
    13:00 +26°C° 0.1 mm 6 m/s 755 mmHg 60%
    14:00 +25°C° 0.1 mm 5 m/s 755 mmHg 64%
    15:00 +23°C° 0.1 mm 5 m/s 755 mmHg 68%
    16:00 +22°C° 0.1 mm 4 m/s 755 mmHg 71%
    17:00 +21°C° 0.1 mm 3 m/s 755 mmHg 75%
    18:00 +21°C° 0.1 mm 2 m/s 755 mmHg 78%
    19:00 +20°C° 0.2 mm 2 m/s 755 mmHg 82%
    20:00 +19°C° 0.2 mm 2 m/s 756 mmHg 87%
    21:00 +19°C° 0.2 mm 1 m/s 756 mmHg 92%
    22:00 +19°C° 0.1 mm 1 m/s 756 mmHg 92%
    23:00 +19°C° 0.1 mm 1 m/s 756 mmHg 93%

    22 Septembre, Dimanche

    Heure Température Précipitation Vent Pression Humidité
    00:00 +18°C° 0.1 mm 2 m/s 756 mmHg 93%
    01:00 +18°C° 0 mm 2 m/s 756 mmHg 93%
    02:00 +17°C° 0 mm 2 m/s 756 mmHg 94%
    03:00 +17°C° 0 mm 2 m/s 756 mmHg 94%
    04:00 +17°C° 0 mm 2 m/s 757 mmHg 94%
    05:00 +17°C° 0 mm 3 m/s 757 mmHg 94%
    06:00 +17°C° 0 mm 3 m/s 757 mmHg 94%
    07:00 +18°C° 0 mm 3 m/s 758 mmHg 87%
    08:00 +19°C° 0 mm 4 m/s 759 mmHg 81%
    09:00 +21°C° 0 mm 4 m/s 759 mmHg 74%
    10:00 +22°C° 0 mm 4 m/s 759 mmHg 64%
    11:00 +23°C° 0 mm 4 m/s 760 mmHg 54%
    12:00 +25°C° 0 mm 4 m/s 760 mmHg 44%
    13:00 +25°C° 0 mm 5 m/s 760 mmHg 46%
    14:00 +23°C° 0 mm 5 m/s 760 mmHg 48%
    15:00 +23°C° 0 mm 6 m/s 760 mmHg 50%
    16:00 +21°C° 0 mm 5 m/s 761 mmHg 58%
    17:00 +20°C° 0 mm 4 m/s 761 mmHg 67%
    18:00 +18°C° 0 mm 3 m/s 762 mmHg 75%
    19:00 +17°C° 0 mm 3 m/s 762 mmHg 81%
    20:00 +16°C° 0 mm 3 m/s 763 mmHg 87%
    21:00 +15°C° 0 mm 2 m/s 763 mmHg 93%
    22:00 +15°C° 0 mm 2 m/s 763 mmHg 93%
    23:00 +15°C° 0 mm 2 m/s 763 mmHg 94%
    Voir plus